星链-5640 (STARLINK-5640 )

导读 | 星芒AI

STARLINK-5640 是 SpaceX 星链计划中的一颗低轨通信卫星,属于第 12 批部署的星链卫星群。该卫星于 2023 年发射,运行在约 550 公里的近地轨道,旨在为全球提供高速互联网服务。它采用先进的相控阵天线和激光通信技术,支持高带宽、低延迟的网络连接。作为星链星座的一部分,STARLINK-5640 有助于扩大覆盖范围,提升偏远地区的网络接入能力,推动全球互联网普及。

基本信息
目录编号:
55436
目录名称:
STARLINK-5640
国际标识:
2023-014AX
轨道中心:
EARTH
卫星名称:
星链-5640
卫星全名:
星链-5640 (STARLINK-5640 )
卫星状态:
在轨 (已飞行1008 天)
发射日期:
2023-01-31 UTC
国别 :
美国 (US)
星等 :
--
轨道信息
数据来源 国际轨道数据
星历时间: 2025-11-04T08:30:59+0800
15小时前
查看轨道信息
半长轴: 6950.184km
偏心率: 0.0003375
轨道倾角: 70.000°
近地点辐角 269.247°
升交点赤经 61.358°
平近点角 90.830°
近地点: 569.703km
远地点: 574.395km
周期: 96.107分钟
每日圈数: 14.983329
详细信息
固有亮度:
5
最大亮度:
2.5
卫星平台:
Starlink v1.5
覆盖范围:
全球
运营商:
太空探索技术公司
运营商所在国:
美国
制造商(研发单位):
太空探索技术公司
制造商所在国:
美国
使用方式:
暂无
卫星简介
星链(Starlink)计划是由太空探索技术公司(SpaceX)提出的一个巨型低轨卫星互联网星座项目,计划在2019年至2024年间在太空搭建由约1.2万颗卫星组成的“星链”网络,其中1584颗将部署在地球上空550千米处的近地轨道,并从2020年开始工作。该卫星仍在工作。
2D轨道图
3D轨道图
轨道高度分析图
轨道倾角分析图
轨道综合分析图
查看轨道综合分析图